Home > Weather > Fredrikstad > Past weeks

Flag for Norway Past Weather in Fredrikstad, Norway — Yesterday and Last 2 Weeks

Now
64 °F

Passing clouds.


Feels Like: 64 °F
Forecast: 51 / 62 °F
Wind: 5 mph from Northeast

Location: Rygge

Current Time: May 28, 2016 at 6:12:01 PM

Latest Report: May 28, 2016 at 5:20 PM


Visibility: N/A

Pressure: 30.15 "Hg

Humidity: 49%

Dew Point: 45 °F

Location of FredrikstadLocation

Past Weather in Fredrikstad — Graph

°F

Fredrikstad Temperature Yesterday

Maximum temperature yesterday: 66 °F (at 12:20 PM)
Minimum temperature yesterday: 54 °F (at 2:20 AM)
Average temperature yesterday: 60 °F

High & Low Weather Summary for the Past Weeks

 TemperatureHumidityPressure
High68 °F (May 26, 5:50 PM)100% (May 17, 3:20 AM)30.18 "Hg (May 17, 3:20 AM)
Low39 °F (May 17, 2:50 AM)27% (May 15, 5:20 PM)29.65 "Hg (May 13, 4:20 PM)
Average53 °F71%29.87 "Hg
* Reported May 13 4:20 PM — May 28 4:20 PM, Fredrikstad, Weather by CustomWeather, © 2016

Note: Actual official high and low records may vary slightly from our data, if they occured in-between our weather recording intervals... More about our weather records

Advertising

Fredrikstad Weather History for the Previous 24 Hours

Scroll right to see more
 ConditionsComfort  
Time TempWeatherWind HumidityBarometerVisibility
4:20 PM
Sat, May 28
63 °FPartly sunny.6 mph52%30.15 "HgN/A
3:50 PM61 °FPassing clouds.5 mph59%30.15 "HgN/A
3:20 PM61 °FPartly sunny.6 mph52%30.15 "HgN/A
2:50 PM59 °FMore clouds than sun.6 mph63%30.18 "HgN/A
2:20 PM61 °FMore clouds than sun.7 mph59%30.18 "HgN/A
1:50 PM61 °FPartly sunny.2 mph55%30.18 "HgN/A
1:20 PM59 °FScattered clouds.3 mph63%30.18 "HgN/A
12:50 PM57 °FBroken clouds.5 mph67%30.18 "HgN/A
12:20 PM59 °FPassing clouds.5 mph68%30.15 "HgN/A
11:50 AM57 °FPassing clouds.6 mph72%30.15 "HgN/A
11:20 AM55 °FScattered clouds.3 mph77%30.18 "HgN/A
10:50 AM55 °FPartly sunny.5 mph72%30.18 "HgN/A
10:20 AM55 °FPartly sunny.5 mph72%30.18 "HgN/A
9:50 AM54 °FPartly sunny.6 mph77%30.18 "HgN/A
9:20 AM54 °FPartly sunny.8 mph77%30.18 "HgN/A
8:50 AM54 °FPartly sunny.7 mph77%30.18 "HgN/A
8:20 AM54 °FPartly sunny.5 mph72%30.18 "HgN/A
7:50 AM54 °FPartly sunny.3 mph72%30.18 "HgN/A
7:20 AM54 °FBroken clouds.3 mph72%30.18 "HgN/A
6:50 AM52 °FSunny.2 mph77%30.18 "Hg10 mi
6:20 AM50 °FSunny.5 mph82%30.18 "Hg10 mi
5:50 AM50 °FOvercast.5 mph82%30.18 "HgN/A
5:20 AM48 °FPartly sunny.2 mph82%30.18 "HgN/A
4:50 AM48 °FPassing clouds.2 mph82%30.18 "HgN/A
4:20 AM48 °FCool.3 mph82%30.18 "HgN/A
3:50 AM50 °FCool.6 mph76%30.18 "HgN/A
3:20 AM50 °FPassing clouds.6 mph76%30.18 "HgN/A
2:50 AM52 °FPassing clouds.8 mph77%30.18 "HgN/A
2:20 AM50 °FPassing clouds.8 mph82%30.18 "HgN/A
1:50 AM52 °FPassing clouds.5 mph77%30.18 "HgN/A
1:20 AM52 °FPassing clouds.3 mph77%30.18 "HgN/A
12:50 AM54 °FOvercast.6 mph72%30.18 "HgN/A
12:20 AM54 °FOvercast.6 mph72%30.18 "HgN/A
11:50 PM
Fri, May 27
54 °FOvercast.6 mph72%30.18 "HgN/A
11:20 PM55 °FPassing clouds.8 mph67%30.18 "HgN/A
10:50 PM55 °FPartly sunny.10 mph63%30.18 "HgN/A
10:20 PM55 °FPartly sunny.7 mph67%30.18 "HgN/A
9:50 PM55 °FPassing clouds.6 mph67%30.18 "HgN/A
9:20 PM57 °FSunny.8 mph63%30.18 "Hg10 mi
8:50 PM57 °FSunny.8 mph63%30.15 "Hg10 mi
8:20 PM59 °FSunny.10 mph59%30.15 "Hg10 mi
7:50 PM59 °FSunny.13 mph63%30.15 "Hg10 mi
7:20 PM63 °FScattered clouds.10 mph56%30.12 "HgN/A
6:50 PM66 °FBroken clouds.6 mph56%30.12 "HgN/A
6:20 PM64 °FSunny.6 mph56%30.12 "Hg10 mi
Weather by CustomWeather, © 2016

See weather overviewHow to use our weather pages